Weather observations for the past three days for
Cody
Imperial (Metric)
Date Time (mdt) Wind (mph) Vis. (mi.) Weather Sky Cond. Temperature (ºF) Relative Humidity Wind Chill (°F) Heat Index (°F) Pressure Precipitation (in)
Air Dwpt 6 hour altimeter (in) sea level (mb) 1 hr 3 hr 6 hr
Max. Min.
12 20:56 W 6 10.00 Fair CLR 72 44.1 37% 29.97 1009.0
12 19:56 N 12 G 17 10.00 Fair CLR 77 44.1 31% 78 29.94 1008.0
12 18:56 W 13 G 21 10.00 Fair CLR 84 28.9 13% 81 29.92 1007.2
12 17:56 W 18 G 31 10.00 Fair CLR 84 28 86 82 13% 81 29.92 1007.8
12 16:56 W 17 G 23 10.00 Fair CLR 84.9 26.1 12% 82 29.93 1007.7
12 15:56 W 18 G 26 10.00 Fair CLR 86 27 12% 83 29.92 1007.3
12 14:56 W 21 G 32 10.00 Fair and Breezy CLR 86 24.1 10% 83 29.93 1007.1
12 13:56 W 18 G 30 10.00 Fair CLR 84.9 24.1 11% 82 29.93 1006.7
12 12:56 W 10 G 25 10.00 Fair CLR 84 26.1 12% 81 29.95 1007.5
12 11:56 W 13 G 30 10.00 Fair CLR 82 26.1 82.9 54 13% 80 29.96 1008.2
12 10:56 W 14 G 22 10.00 Fair CLR 81 28 14% 79 29.97 1008.7
12 09:56 W 10 G 20 10.00 Fair CLR 78.1 30.9 18% 77 29.98 1008.9
12 08:56 Vrbl 3 10.00 Fair CLR 72 44.1 37% 29.99 1009.6
12 07:56 E 5 10.00 Fair CLR 68 43 40% 29.99 1009.6
12 06:56 Vrbl 3 10.00 Fair CLR 61 44.1 54% 29.99 1009.9
12 05:56 Calm 8.00 Fair CLR 55.9 39.9 73 55 55% 29.97 1009.5
12 04:56 W 3 10.00 Fair CLR 57.9 41 53% 29.95 1008.6
12 03:56 Calm 10.00 Fair CLR 59 39 48% 29.94 1007.9
12 02:56 Calm 10.00 Fair CLR 63 37.9 40% 29.92 1007.5
12 01:56 SW 9 10.00 Fair CLR 72 35.1 26% 29.91 1006.4
12 00:56 SW 9 10.00 Fair CLR 72 36 27% 29.92 1006.7
11 23:56 SW 5 10.00 Fair CLR 68 37 82.9 66 32% 29.92 1007.5
11 22:56 SE 3 10.00 Fair CLR 68 37 32% 29.93 1007.9
11 21:56 SW 8 10.00 Fair CLR 72 37 28% 29.92 1007.6
11 20:56 W 10 G 17 10.00 Fair CLR 75.9 35.1 23% 77 29.92 1007.6
11 19:56 W 10 10.00 Fair CLR 79 37 22% 78 29.92 1007.4
11 18:56 W 13 G 22 10.00 Fair CLR 81 37 21% 79 29.92 1007.5
11 17:56 W 15 G 20 10.00 Fair CLR 82.9 37.9 84 73.9 20% 81 29.92 1008.1
11 16:56 W 12 G 17 10.00 Fair CLR 84 36 18% 81 29.92 1008.1
11 15:56 W 13 G 23 10.00 Fair CLR 84 36 18% 81 29.94 1008.2
11 14:56 S 8 10.00 Fair CLR 81 45 28% 80 29.96 1009.3
11 13:56 SE 8 G 17 10.00 Fair CLR 79 44.1 29% 79 29.98 1010.3
11 12:56 SE 12 10.00 Fair CLR 77 45 32% 78 30 1011.2
11 11:56 S 8 10.00 A Few Clouds FEW002 75.9 44.1 75.9 51.1 32% 77 30.03 1011.9
11 10:56 SE 8 10.00 Fair CLR 72 43 35% 30.05 1012.7
11 09:56 E 8 10.00 Fair CLR 70 44.1 39% 30.07 1013.6
11 08:56 Calm 10.00 Fair CLR 66 46 49% 30.09 1014.2
11 07:56 Calm 10.00 Fair CLR 62.1 48 60% 30.1 1014.6
11 06:56 Calm 10.00 Fair CLR 57.9 46.9 67% 30.1 1014.8
11 04:56 Calm 10.00 Fair CLR 51.1 44.1 77% 30.09 1015.2
11 03:56 SW 3 10.00 Fair CLR 55 45 69% 30.09 1014.8
11 02:56 SW 6 10.00 Fair CLR 55 43 64% 30.09 1014.8
11 01:56 SE 5 10.00 Mostly Cloudy BKN100 55 44.1 67% 30.09 1015.0
11 00:56 S 5 10.00 A Few Clouds FEW100 55 45 69% 30.09 1015.1
10 23:56 S 7 10.00 Mostly Cloudy BKN100 57.9 46 73.9 57.9 65% 30.09 1015.0
10 22:56 S 6 10.00 Overcast OVC100 61 46.9 60% 30.09 1014.3
10 21:56 S 3 10.00 Fair CLR 62.1 45 54% 30.07 1014.0
10 20:56 N 5 10.00 Fair CLR 66 44.1 45% 30.03 1012.3
10 19:56 N 13 10.00 A Few Clouds FEW110 70 44.1 39% 30.01 1011.5
10 18:56 N 15 10.00 A Few Clouds FEW100 72 46.9 41% 29.99 1011.3
10 17:56 N 10 10.00 Partly Cloudy SCT100 73.9 48 75 66 40% 29.98 1010.7
10 16:56 NE 10 10.00 Mostly Cloudy BKN095 72 48.9 44% 29.98 1011.0
10 15:56 NE 10 G 20 9.00 Partly Cloudy SCT095 73 50 44% 29.99 1010.8
10 14:56 N 14 G 17 10.00 Fair CLR 73 52 48% 29.99 1011.0
10 13:56 N 13 10.00 Fair CLR 70 53.1 55% 30.01 1011.9
10 12:56 N 13 10.00 Fair CLR 69.1 55 61% 30.01 1012.2
10 11:56 NE 23 G 26 10.00 Fair and Breezy CLR 66.9 55.9 69.1 53.1 68% 30 1011.7
10 10:56 N 13 10.00 Fair CLR 68 52 57% 30.01 1012.2
10 09:56 S 8 10.00 Overcast FEW028 SCT060 OVC080 63 48.9 60% 30.01 1012.4
10 08:56 N 6 10.00 Partly Cloudy SCT095 SCT120 66 55 68% 29.98 1011.0
10 07:56 S 8 10.00 Fair CLR 59 51.1 75% 29.97 1010.8
10 06:56 N 3 10.00 Fair CLR 55 51.1 87% 29.98 1011.0
10 05:56 S 8 10.00 Fair CLR 55 50 57.9 53.1 83% 29.98 1010.4
10 04:56 Calm 10.00 Fair CLR 55 50 83% 29.99 1010.8
10 03:56 S 8 10.00 Fair CLR 55.9 51.1 84% 29.99 1010.9
10 02:56 SE 9 10.00 Fair CLR 55.9 51.1 84% 29.99 1011.5
10 01:56 W 7 10.00 Fair CLR 57 51.1 81% 30.02 1013.1
10 00:56 SE 13 10.00 Fair CLR 57 53.1 87% 30.06 1014.4
09 23:56 S 7 10.00 Light Rain FEW070 BKN090 OVC100 57.9 55 77 57 90% 30.08 1014.7 0.09 0.11
09 22:56 W 6 10.00 Thunderstorm Light Rain FEW050 OVC095 57.9 53.1 84% 30.11 1016.3 0.01
09 21:56 NW 7 10.00 Thunderstorm OVC060 59 52 78% 30.1 1016.0 0.01
Date Time (mdt) Wind (mph) Vis. (mi.) Weather Sky Cond. Air Dwpt Max. Min. Relative Humidity Wind Chill (°F) Heat Index (°F) altimeter (in) sea level (mb) 1 hr 3 hr 6 hr
6 hour
Temperature (ºF) Pressure Precipitation (in)